TimeEST,TemperatureF,Dew PointF,Humidity,Sea Level PressureIn,VisibilityMPH,Wind Direction,Wind SpeedMPH,Gust SpeedMPH,PrecipitationIn,Events,Conditions,WindDirDegrees,DateUTC
12:49 AM,24.8,21.2,86,30.05,10.0,NNW,3.5,-,N/A,,Overcast,330,2012-01-15 05:49:00
12:51 AM,25.0,21.9,88,30.15,10.0,NNW,3.5,-,N/A,,Overcast,340,2012-01-15 05:51:00
1:51 AM,24.1,21.9,91,30.17,10.0,NNW,5.8,-,N/A,,Overcast,340,2012-01-15 06:51:00
2:51 AM,24.1,21.0,88,30.20,10.0,NNW,6.9,-,0.00,,Overcast,330,2012-01-15 07:51:00
3:51 AM,24.1,21.0,88,30.22,5.0,NW,5.8,-,0.00,Snow,Light Snow,310,2012-01-15 08:51:00
4:51 AM,24.1,19.9,84,30.25,6.0,NW,8.1,-,0.00,Snow,Light Snow,310,2012-01-15 09:51:00
5:14 AM,23.0,19.4,86,30.15,5.0,NW,6.9,-,0.00,Snow,Light Snow,320,2012-01-15 10:14:00
5:51 AM,21.9,19.0,89,30.29,4.0,NNW,10.4,-,0.00,Snow,Light Snow,340,2012-01-15 10:51:00
6:51 AM,21.9,18.0,85,30.34,10.0,NW,8.1,-,0.00,,Overcast,320,2012-01-15 11:51:00
7:51 AM,21.9,18.0,85,30.38,7.0,NW,6.9,-,0.00,Snow,Light Snow,310,2012-01-15 12:51:00
8:01 AM,21.2,17.6,86,30.26,5.0,NNW,6.9,-,N/A,Snow,Light Snow,330,2012-01-15 13:01:00
8:43 AM,21.2,17.6,86,30.29,2.0,NNW,9.2,-,0.00,Snow,Light Snow,340,2012-01-15 13:43:00
8:51 AM,21.0,17.1,85,30.42,1.8,NNW,9.2,-,0.00,Snow,Light Snow,340,2012-01-15 13:51:00
9:26 AM,21.2,17.6,86,30.31,1.2,NW,6.9,-,0.00,Snow,Light Snow,320,2012-01-15 14:26:00
9:51 AM,21.0,16.0,81,30.45,1.2,NW,5.8,-,0.00,Snow,Light Snow,310,2012-01-15 14:51:00
10:05 AM,21.2,15.8,80,30.33,1.8,WNW,6.9,-,0.00,Snow,Light Snow,300,2012-01-15 15:05:00
10:13 AM,21.2,15.8,80,30.33,3.0,WNW,5.8,-,0.00,Snow,Light Snow,290,2012-01-15 15:13:00
10:38 AM,21.2,14.0,74,30.34,6.0,WNW,8.1,-,0.00,,Haze,290,2012-01-15 15:38:00
10:51 AM,21.9,15.1,75,30.47,10.0,WNW,8.1,-,0.00,,Overcast,300,2012-01-15 15:51:00
11:51 AM,23.0,14.0,68,30.48,9.0,WNW,9.2,16.1,N/A,,Overcast,300,2012-01-15 16:51:00
12:51 PM,23.0,14.0,68,30.47,10.0,West,6.9,-,N/A,,Mostly Cloudy,270,2012-01-15 17:51:00
1:27 PM,26.6,14.0,59,30.34,10.0,NNW,6.9,-,N/A,,Scattered Clouds,340,2012-01-15 18:27:00
1:35 PM,26.6,14.0,59,30.34,10.0,Variable,6.9,-,N/A,,Mostly Cloudy,0,2012-01-15 18:35:00
1:43 PM,24.8,12.2,59,30.34,10.0,West,5.8,-,N/A,,Partly Cloudy,260,2012-01-15 18:43:00
1:51 PM,26.1,14.0,60,30.46,10.0,Calm,Calm,-,N/A,,Partly Cloudy,0,2012-01-15 18:51:00
2:51 PM,28.0,12.9,53,30.46,10.0,West,4.6,-,N/A,,Clear,270,2012-01-15 19:51:00
3:51 PM,28.0,14.0,56,30.46,10.0,Variable,5.8,-,N/A,,Clear,0,2012-01-15 20:51:00
4:51 PM,28.0,14.0,56,30.48,10.0,West,4.6,-,N/A,,Clear,260,2012-01-15 21:51:00
5:51 PM,26.6,15.8,64,30.38,10.0,SW,3.5,-,N/A,,Clear,220,2012-01-15 22:51:00
6:51 PM,25.0,15.1,66,30.51,10.0,South,4.6,-,N/A,,Clear,190,2012-01-15 23:51:00
7:51 PM,24.1,15.1,69,30.51,10.0,SE,3.5,-,N/A,,Clear,130,2012-01-16 00:51:00
8:51 PM,24.1,15.1,69,30.51,10.0,SE,4.6,-,N/A,,Clear,140,2012-01-16 01:51:00
9:51 PM,25.0,16.0,69,30.52,10.0,SSE,4.6,-,N/A,,Clear,150,2012-01-16 02:51:00
10:51 PM,26.1,17.1,69,30.51,10.0,SSE,6.9,-,N/A,,Clear,160,2012-01-16 03:51:00
11:51 PM,27.0,17.1,66,30.48,10.0,SE,8.1,-,N/A,,Clear,140,2012-01-16 04:51:00